DW9439 Weather Reports


time (UTC)temp
C
wind
direction
speed
KPH
gust
KPH
rain 1hr
cm
rain 24hr
cm
rain mn
cm
humidity
%
barometer
mb
20260505011937 21 101 4.8 11.3 0.00 0.00 0.00 30 1007.6
20260505011640 21 101 4.8 11.3 0.00 0.00 0.00 30 1007.6
20260505011334 21 101 3.2 11.3 0.00 0.00 0.00 31 1007.6
20260505011021 21 101 3.2 9.7 0.00 0.00 0.00 30 1007.6
20260505010713 22 101 4.8 9.7 0.00 0.00 0.00 30 1007.4
20260505010412 22 101 4.8 9.7 0.00 0.00 0.00 29 1007.4
20260505010103 22 101 6.4 9.7 0.00 0.00 0.00 30 1007.4
20260505005758 22 101 6.4 9.7 0.00 0.00 0.00 29 1007.4
20260505005459 22 101 4.8 9.7 0.00 0.00 0.00 28 1007.4
20260505005146 23 101 4.8 9.7 0.00 0.00 0.00 27 1007.2
20260505004422 23 101 6.4 9.7 0.00 0.00 0.00 27 1007.3
20260505004115 23 101 6.4 9.7 0.00 0.00 0.00 26 1007.3
20260505003812 23 101 4.8 8.0 0.00 0.00 0.00 25 1007.3
20260505003500 24 101 4.8 14.5 0.00 0.00 0.00 25 1007.3
20260505003150 24 101 4.8 14.5 0.00 0.00 0.00 25 1007.3
20260505002847 24 101 6.4 14.5 0.00 0.00 0.00 25 1007.3
20260505002540 24 101 8.0 14.5 0.00 0.00 0.00 25 1007.2
20260505001815 24 101 8.0 14.5 0.00 0.00 0.00 25 1007.2
20260505001504 24 101 9.7 14.5 0.00 0.00 0.00 25 1007.0
20260505001151 25 101 9.7 14.5 0.00 0.00 0.00 25 1007.0
20260505000846 25 101 9.7 14.5 0.00 0.00 0.00 25 1007.2
20260505000537 25 101 9.7 17.7 0.00 0.00 0.00 25 1007.1
20260504235825 25 103 9.7 17.7 0.00 0.00 0.00 24 1007.0
20260504235522 25 103 9.7 17.7 0.00 0.00 0.00 24 1007.0
20260504235209 25 103 11.3 17.7 0.00 0.00 0.00 24 1007.1
20260504234903 25 103 11.3 17.7 0.00 0.00 0.00 24 1007.0
20260504234551 25 104 12.9 20.9 0.00 0.00 0.00 24 1007.0
20260504234241 25 104 11.3 20.9 0.00 0.00 0.00 24 1007.0
20260504233937 25 104 11.3 20.9 0.00 0.00 0.00 25 1006.9
20260504233632 25 105 11.3 24.1 0.00 0.00 0.00 25 1006.9
20260504233320 25 104 12.9 24.1 0.00 0.00 0.00 25 1007.0
20260504233016 25 103 14.5 24.1 0.00 0.00 0.00 25 1007.0
20260504232717 25 103 14.5 24.1 0.00 0.00 0.00 24 1007.0
20260504231547 25 103 11.3 20.9 0.00 0.00 0.00 23 1006.9
20260504231245 25 103 12.9 20.9 0.00 0.00 0.00 23 1007.2
20260504230935 25 107 12.9 20.9 0.00 0.00 0.00 23 1007.2
20260504230634 25 103 11.3 20.9 0.00 0.00 0.00 23 1007.1
20260504230328 25 96 9.7 20.9 0.00 0.00 0.00 23 1007.2
20260504230027 25 78 9.7 19.3 0.00 0.00 0.00 24 1007.1
20260504225305 25 69 9.7 19.3 0.00 0.00 0.00 24 1007.3
20260504224955 26 40 8.0 17.7 0.00 0.00 0.00 24 1007.3
20260504224656 26 355 6.4 14.5 0.00 0.00 0.00 23 1007.3
20260504224356 26 320 4.8 11.3 0.00 0.00 0.00 23 1007.1
20260504224048 26 319 4.8 11.3 0.00 0.00 0.00 22 1007.3
20260504223321 27 317 0.0 8.0 0.00 0.00 0.00 18 1007.4
20260504223013 27 317 0.0 0.0 0.00 0.00 0.00 16 1007.3
20260504222716 27 317 0.0 0.0 0.00 0.00 0.00 16 1007.2
20260504222419 27 317 0.0 0.0 0.00 0.00 0.00 15 1007.1
20260504222107 27 317 1.6 6.4 0.00 0.00 0.00 15 1007.2
20260504221810 27 317 0.0 9.7 0.00 0.00 0.00 15 1007.2
20260504221511 27 317 0.0 9.7 0.00 0.00 0.00 15 1007.3
20260504221202 27 317 1.6 9.7 0.00 0.00 0.00 15 1007.3
20260504220906 27 317 4.8 11.3 0.00 0.00 0.00 15 1007.4
20260504220603 27 317 4.8 11.3 0.00 0.00 0.00 15 1007.3
20260504215839 27 317 4.8 17.7 0.00 0.00 0.00 16 1007.4
20260504215119 27 317 9.7 17.7 0.00 0.00 0.00 15 1007.6
20260504214805 27 317 9.7 17.7 0.00 0.00 0.00 16 1007.6
20260504214504 27 317 11.3 17.7 0.00 0.00 0.00 16 1007.6
20260504213733 27 305 11.3 17.7 0.00 0.00 0.00 15 1007.5
20260504213425 27 301 9.7 17.7 0.00 0.00 0.00 15 1007.6
20260504213116 27 294 9.7 17.7 0.00 0.00 0.00 14 1007.6
20260504212817 27 279 8.0 19.3 0.00 0.00 0.00 15 1007.7
20260504212515 27 279 4.8 19.3 0.00 0.00 0.00 14 1007.8
20260504211758 27 277 8.0 19.3 0.00 0.00 0.00 14 1007.9
20260504211457 27 277 9.7 19.3 0.00 0.00 0.00 14 1008.0
20260504211201 27 276 8.0 19.3 0.00 0.00 0.00 14 1008.0
20260504210449 28 275 3.2 17.7 0.00 0.00 0.00 14 1007.9
20260504210137 28 275 4.8 17.7 0.00 0.00 0.00 14 1008.0
20260504205832 28 275 8.0 17.7 0.00 0.00 0.00 14 1007.9
20260504205525 28 275 9.7 17.7 0.00 0.00 0.00 14 1008.1
20260504204347 28 284 9.7 16.1 0.00 0.00 0.00 14 1008.1
20260504204043 28 284 8.0 14.5 0.00 0.00 0.00 14 1008.2
20260504203733 28 282 6.4 14.5 0.00 0.00 0.00 14 1008.2
20260504203008 28 281 3.2 12.9 0.00 0.00 0.00 14 1008.2
20260504202257 28 281 8.0 12.9 0.00 0.00 0.00 14 1008.5
20260504201533 28 281 4.8 14.5 0.00 0.00 0.00 14 1008.5
20260504201229 28 281 4.8 14.5 0.00 0.00 0.00 14 1008.4
20260504200916 28 281 6.4 14.5 0.00 0.00 0.00 14 1008.6
20260504200602 28 281 6.4 14.5 0.00 0.00 0.00 14 1008.7
20260504195400 27 281 3.2 12.9 0.00 0.00 0.00 15 1008.8
20260504195053 27 281 3.2 11.3 0.00 0.00 0.00 15 1008.8
20260504194750 27 281 6.4 14.5 0.00 0.00 0.00 15 1008.8
20260504194437 27 281 6.4 14.5 0.00 0.00 0.00 15 1008.9
20260504194127 27 281 6.4 14.5 0.00 0.00 0.00 15 1009.0
20260504193830 27 281 6.4 14.5 0.00 0.00 0.00 16 1009.1
20260504193523 27 281 8.0 14.5 0.00 0.00 0.00 15 1009.1
20260504193218 27 281 8.0 14.5 0.00 0.00 0.00 15 1009.1
20260504192908 27 281 8.0 14.5 0.00 0.00 0.00 16 1009.1
20260504192602 27 286 8.0 14.5 0.00 0.00 0.00 16 1009.2
20260504192300 27 286 6.4 14.5 0.00 0.00 0.00 16 1009.2
20260504191958 27 290 4.8 14.5 0.00 0.00 0.00 15 1009.2
20260504191659 27 290 3.2 14.5 0.00 0.00 0.00 15 1009.3
20260504191358 27 290 4.8 14.5 0.00 0.00 0.00 15 1009.3
20260504191047 27 292 4.8 14.5 0.00 0.00 0.00 15 1009.3
20260504190750 27 292 6.4 19.3 0.00 0.00 0.00 15 1009.3
20260504190449 27 292 6.4 19.3 0.00 0.00 0.00 15 1009.3
20260504190152 27 292 8.0 19.3 0.00 0.00 0.00 15 1009.3
20260504185840 27 292 9.7 19.3 0.00 0.00 0.00 15 1009.4
20260504185536 27 292 9.7 19.3 0.00 0.00 0.00 14 1009.4
20260504185234 27 292 9.7 19.3 0.00 0.00 0.00 15 1009.4
20260504184925 27 284 9.7 16.1 0.00 0.00 0.00 15 1009.5
20260504184619 27 284 9.7 16.1 0.00 0.00 0.00 15 1009.4
20260504184315 27 283 9.7 16.1 0.00 0.00 0.00 14 1009.5
20260504184019 28 281 9.7 24.1 0.00 0.00 0.00 15 1009.6
20260504183711 28 281 11.3 24.1 0.00 0.00 0.00 15 1009.6
20260504183415 28 281 12.9 24.1 0.00 0.00 0.00 14 1009.7
20260504183100 28 280 14.5 24.1 0.00 0.00 0.00 14 1009.7
20260504182747 28 262 14.5 24.1 0.00 0.00 0.00 14 1009.7
20260504182448 28 266 14.5 24.1 0.00 0.00 0.00 14 1009.8
20260504182138 29 261 11.3 22.5 0.00 0.00 0.00 13 1009.8
20260504181828 29 264 9.7 22.5 0.00 0.00 0.00 15 1010.0
20260504181520 28 283 9.7 22.5 0.00 0.00 0.00 16 1009.8
20260504181215 28 284 9.7 22.5 0.00 0.00 0.00 16 1010.0
20260504180909 28 284 9.7 22.5 0.00 0.00 0.00 14 1010.1
20260504180605 29 292 8.0 22.5 0.00 0.00 0.00 15 1010.1
20260504180254 29 284 6.4 16.1 0.00 0.00 0.00 15 1010.2
20260504175953 28 284 8.0 16.1 0.00 0.00 0.00 16 1010.2
20260504175229 28 279 8.0 19.3 0.00 0.00 0.00 15 1010.5
20260504174921 28 277 8.0 19.3 0.00 0.00 0.00 16 1010.5
20260504174613 28 277 8.0 19.3 0.00 0.00 0.00 16 1010.7
20260504173835 28 266 6.4 22.5 0.00 0.00 0.00 16 1010.7
20260504173528 28 266 11.3 22.5 0.00 0.00 0.00 16 1010.8
20260504173227 28 265 11.3 22.5 0.00 0.00 0.00 16 1010.8
20260504172919 28 265 11.3 22.5 0.00 0.00 0.00 16 1010.9
20260504172607 28 265 6.4 22.5 0.00 0.00 0.00 16 1010.9
20260504172256 27 271 4.8 17.7 0.00 0.00 0.00 17 1011.0
20260504171958 27 268 3.2 19.3 0.00 0.00 0.00 17 1011.0
20260504171655 27 284 4.8 19.3 0.00 0.00 0.00 16 1011.1
20260504170931 27 284 8.0 19.3 0.00 0.00 0.00 16 1011.1
20260504170623 27 280 6.4 19.3 0.00 0.00 0.00 16 1011.1
20260504160401 26 281 14.5 20.9 0.00 0.00 0.00 22 1011.4
20260504150634 22 284 14.5 20.9 0.00 0.00 0.00 32 1012.0
20260504150336 22 292 14.5 19.3 0.00 0.00 0.00 32 1011.9
20260504141114 17 309 11.3 17.7 0.00 0.00 0.00 46 1012.2
20260504140809 17 316 11.3 16.1 0.00 0.00 0.00 46 1012.2
20260504140457 17 320 11.3 16.1 0.00 0.00 0.00 46 1012.4
20260504140142 17 336 11.3 16.1 0.00 0.00 0.00 46 1012.4
20260504130722 8 28 6.4 9.7 0.00 0.00 0.00 79 1012.2
20260504130410 7 28 4.8 9.7 0.00 0.00 0.00 80 1012.3
20260504120131 4 28 3.2 9.7 0.00 0.00 0.00 83 1011.7
20260504110458 3 28 3.2 6.4 0.00 0.00 0.00 78 1011.6
20260504110150 4 28 3.2 6.4 0.00 0.00 0.00 78 1011.7
20260504081806 6 28 8.0 11.3 0.00 0.00 0.00 72 1013.2
20260504081041 6 28 6.4 11.3 0.00 0.00 0.00 72 1013.3
20260504080730 6 28 6.4 9.7 0.00 0.00 0.00 72 1013.2
20260504060141 9 28 1.6 6.4 0.00 0.00 0.00 59 1014.2
20260504050749 9 28 3.2 4.8 0.00 0.00 0.00 52 1014.2
20260504050446 9 28 1.6 4.8 0.00 0.00 0.00 51 1014.3
20260504050135 10 28 0.0 4.8 0.00 0.00 0.00 50 1014.3
20260504045823 10 28 0.0 1.6 0.00 0.00 0.00 49 1014.3
20260504045515 10 28 0.0 1.6 0.00 0.00 0.00 49 1014.2
20260504044739 10 28 0.0 1.6 0.00 0.00 0.00 48 1014.3
20260504044440 10 28 0.0 1.6 0.00 0.00 0.00 47 1014.2
20260504044142 10 28 0.0 1.6 0.00 0.00 0.00 47 1014.3
20260504043834 10 28 0.0 1.6 0.00 0.00 0.00 47 1014.3
20260504043534 10 28 0.0 1.6 0.00 0.00 0.00 46 1014.3
20260504043233 11 28 0.0 1.6 0.00 0.00 0.00 46 1014.3
20260504042926 11 28 0.0 1.6 0.00 0.00 0.00 45 1014.3
20260504042622 11 28 0.0 1.6 0.00 0.00 0.00 45 1014.3
20260504042324 11 28 0.0 1.6 0.00 0.00 0.00 45 1014.3
20260504042019 11 28 1.6 1.6 0.00 0.00 0.00 44 1014.3
20260504041708 11 28 1.6 4.8 0.00 0.00 0.00 44 1014.3
20260504041356 11 28 1.6 4.8 0.00 0.00 0.00 44 1014.3
20260504041055 11 28 1.6 4.8 0.00 0.00 0.00 44 1014.3
20260504040746 11 28 1.6 4.8 0.00 0.00 0.00 44 1014.4
20260504040023 11 28 1.6 4.8 0.00 0.00 0.00 44 1014.4
20260504035712 11 28 1.6 3.2 0.00 0.00 0.00 43 1014.3
20260504035359 11 28 0.0 1.6 0.00 0.00 0.00 43 1014.3
20260504035059 11 28 0.0 1.6 0.00 0.00 0.00 43 1014.3
20260504034803 11 28 0.0 1.6 0.00 0.00 0.00 42 1014.3
20260504033207 12 28 0.0 0.0 0.00 0.00 0.00 40 1014.4
20260504032909 12 28 0.0 0.0 0.00 0.00 0.00 39 1014.4
20260504032603 12 28 0.0 0.0 0.00 0.00 0.00 39 1014.4
20260504032304 13 28 0.0 1.6 0.00 0.00 0.00 38 1014.4
20260504032007 13 28 0.0 1.6 0.00 0.00 0.00 38 1014.4
20260504031700 13 28 0.0 4.8 0.00 0.00 0.00 37 1014.4
20260504031347 14 28 0.0 4.8 0.00 0.00 0.00 36 1014.4
20260504031035 14 28 0.0 4.8 0.00 0.00 0.00 36 1014.3
20260504030304 14 28 0.0 4.8 0.00 0.00 0.00 36 1014.3
20260504025953 14 28 0.0 4.8 0.00 0.00 0.00 36 1014.3
20260504025646 14 28 0.0 1.6 0.00 0.00 0.00 37 1014.2
20260504025335 14 28 0.0 1.6 0.00 0.00 0.00 37 1014.2
20260504025029 14 28 0.0 1.6 0.00 0.00 0.00 37 1014.2
20260504024724 14 28 0.0 1.6 0.00 0.00 0.00 37 1014.2
20260504024421 15 28 0.0 1.6 0.00 0.00 0.00 36 1014.2
20260504024125 15 28 0.0 1.6 0.00 0.00 0.00 36 1014.2
20260504023827 15 28 0.0 3.2 0.00 0.00 0.00 36 1014.1
20260504023521 15 28 0.0 3.2 0.00 0.00 0.00 36 1014.1
20260504022756 15 28 1.6 4.8 0.00 0.00 0.00 35 1014.1
20260504022452 15 28 1.6 4.8 0.00 0.00 0.00 35 1014.1
20260504022139 15 28 1.6 4.8 0.00 0.00 0.00 35 1014.0
20260504021418 16 28 1.6 4.8 0.00 0.00 0.00 34 1014.0
20260504021107 16 28 1.6 4.8 0.00 0.00 0.00 33 1014.0
20260504020333 17 28 3.2 4.8 0.00 0.00 0.00 32 1014.0
20260504020021 17 28 3.2 4.8 0.00 0.00 0.00 32 1013.9
20260504015725 17 28 3.2 4.8 0.00 0.00 0.00 31 1013.9
20260504015425 17 28 3.2 4.8 0.00 0.00 0.00 31 1013.9
20260504015117 17 28 1.6 4.8 0.00 0.00 0.00 30 1013.9
20260504014804 17 28 1.6 4.8 0.00 0.00 0.00 30 1013.9
20260504014027 18 28 1.6 4.8 0.00 0.00 0.00 29 1013.9
20260504013722 18 28 1.6 4.8 0.00 0.00 0.00 29 1013.9
20260504013412 18 28 1.6 4.8 0.00 0.00 0.00 28 1013.9
20260504012642 20 28 1.6 4.8 0.00 0.00 0.00 28 1013.9
20260504012344 20 28 1.6 4.8 0.00 0.00 0.00 27 1013.9